[[[{"header":{"parameterUnit":"kt","parameterCategory":2,"dx":1,"dy":1,"la1":30.253999710083008,"la2":30.299108505249023,"lo1":-89.0895004272461,"lo2":-89.04439544677734,"nx":28,"ny":28,"refTime":"2022-09-21T09:00:00:Z","depth":0,"parameterNumber":1,"parameterNumberName":"U-component_of_WINDS"},"data":[-0.7922,-0.7982,-0.7984,-0.8052,-0.8065,-0.8112,-0.8129,-0.8151,-0.8169,-0.8225,-0.8257,-0.8264,-0.8283,-0.8321,-0.8355,-0.8358,-0.8371,-0.839,-0.839,-0.8303,-0.8292,-0.828,-0.8266,-0.8394,-0.8394,-0.8478,-0.8479,-0.848,-0.7857,-0.7871,-0.7908,-0.7945,-0.7977,-0.7959,-0.7987,-0.8014,-0.8056,-0.808,-0.8112,-0.816,-0.8199,-0.8211,-0.8248,-0.8275,-0.8268,-0.8285,-0.8282,-0.8285,-0.8193,-0.8178,-0.8289,-0.8289,-0.8289,-0.8289,-0.8289,-0.8289,-0.7739,-0.7774,-0.7798,-0.7838,-0.7857,-0.7882,-0.7916,-0.7925,-0.7961,-0.8001,-0.7996,-0.8044,-0.8067,-0.8113,-0.8129,-0.8165,-0.8147,-0.8166,-0.817,-0.8174,-0.8178,-0.8053,-0.8172,-0.8172,-0.8171,-0.8171,-0.8171,0,-0.7652,-0.7651,-0.7687,-0.7724,-0.7753,-0.7781,-0.7808,-0.7829,-0.7828,-0.7858,-0.7901,-0.7926,-0.7975,-0.8015,-0.8051,-0.8064,-0.8048,-0.8047,-0.8059,-0.8061,-0.8058,-0.8059,-0.7907,-0.8043,-0.8042,-0.8041,-0.8041,-0.804,-0.7531,-0.7573,-0.7599,-0.7624,-0.7639,-0.7679,-0.7703,-0.7699,-0.7725,-0.7757,-0.7789,-0.7829,-0.7861,-0.793,-0.794,-0.7976,-0.7969,-0.802,-0.7974,-0.7974,-0.7968,-0.7965,-0.7968,-0.8029,-0.803,-0.8032,-0.8033,0,-0.7462,-0.7466,-0.7531,-0.7553,-0.756,-0.7604,-0.7622,-0.7657,-0.7662,-0.7712,-0.7723,-0.773,-0.7773,-0.7774,-0.7823,-0.7822,-0.7893,-0.7885,-0.7884,-0.7882,-0.7927,-0.7922,-0.8077,-0.8096,-0.7965,-0.7966,-0.7967,0,-0.7359,-0.7415,-0.7416,-0.7454,-0.7515,-0.751,-0.757,-0.7581,-0.7601,-0.764,-0.7623,-0.766,-0.7656,-0.7693,-0.7692,-0.775,-0.776,-0.7762,-0.7761,-0.7763,-0.7762,-0.7776,-0.7769,-0.7759,-0.7758,-0.7757,-0.7756,0,-0.725,-0.7317,-0.7379,-0.7394,-0.7423,-0.7452,-0.7466,-0.7488,-0.7513,-0.7544,-0.7559,-0.7597,-0.7617,-0.7645,-0.7644,-0.7612,-0.7716,-0.7672,-0.7718,-0.7718,-0.774,-0.7738,-0.7875,-0.7755,-0.7755,-0.7755,-0.7755,0,-0.7167,-0.72,-0.729,-0.7313,-0.733,-0.7372,-0.7407,-0.7443,-0.7469,-0.7471,-0.7495,-0.7484,-0.7536,-0.7492,-0.7564,-0.7523,-0.7543,-0.7551,-0.7554,-0.7558,-0.7509,-0.7584,-0.7716,-0.7729,-0.7562,-0.7561,-0.7559,0,-0.7041,-0.7133,-0.7129,-0.7214,-0.7257,-0.7234,-0.7279,-0.7303,-0.7309,-0.7346,-0.7353,-0.7395,-0.7363,-0.7376,-0.7411,-0.742,-0.7473,-0.7413,-0.7465,-0.7466,-0.7457,-0.7578,-0.7597,-0.7687,-0.7539,-0.7541,-0.7543,0,-0.6943,-0.6978,-0.6994,-0.7011,-0.7041,-0.7077,-0.713,-0.717,-0.7194,-0.7223,-0.7266,-0.7327,-0.7304,-0.7327,-0.7321,-0.7358,-0.7437,-0.7329,-0.733,-0.7348,-0.7529,-0.7546,-0.7561,-0.7425,-0.7428,-0.743,-0.7526,0,-0.6815,-0.6861,-0.6904,-0.6944,-0.6972,-0.7026,-0.7027,-0.7057,-0.7048,-0.7054,-0.7118,-0.7139,-0.718,-0.7199,-0.7191,-0.7275,-0.7261,-0.7238,-0.7194,-0.7275,-0.7306,-0.7319,-0.7147,-0.7146,-0.7145,-0.7144,0,0,-0.6692,-0.6759,-0.6753,-0.6804,-0.6827,-0.6803,-0.686,-0.688,-0.6921,-0.6937,-0.6913,-0.7001,-0.7019,-0.7097,-0.7122,-0.7139,-0.7154,-0.7127,-0.7237,-0.7247,-0.7257,-0.7291,-0.7304,-0.7142,-0.7141,-0.7141,-0.7141,0,-0.6645,-0.6664,-0.6721,-0.6742,-0.6771,-0.6774,-0.6788,-0.6813,-0.682,-0.6884,-0.6862,-0.6901,-0.6973,-0.6993,-0.7013,-0.7117,-0.7099,-0.713,-0.7185,-0.7226,-0.7238,-0.7248,-0.7284,-0.7297,-0.7138,-0.7138,-0.7138,0,-0.6548,-0.6566,-0.6595,-0.6647,-0.6666,-0.6711,-0.6666,-0.6716,-0.6749,-0.672,-0.6783,-0.6795,-0.6824,-0.6898,-0.6932,-0.6911,-0.7048,-0.7006,-0.7013,-0.7016,-0.7057,-0.7071,-0.7083,-0.6917,-0.6916,-0.6915,0,0,-0.6507,-0.6551,-0.6569,-0.6637,-0.665,-0.6656,-0.6681,-0.6675,-0.6701,-0.6712,-0.6727,-0.6753,-0.6794,-0.6821,-0.686,-0.6942,-0.6946,-0.6979,-0.6989,-0.6998,-0.7006,-0.7048,-0.7062,-0.6913,-0.6912,-0.6912,0,0,-0.6488,-0.6512,-0.6499,-0.6577,-0.6603,-0.6626,-0.6667,-0.6651,-0.6686,-0.668,-0.6673,-0.668,-0.675,-0.6763,-0.6723,-0.6844,-0.6802,-0.6812,-0.6834,-0.6847,-0.6857,-0.6852,-0.668,0,0,0,0,0,-0.644,-0.6508,-0.6496,-0.651,-0.6576,-0.6632,-0.6641,-0.6636,-0.6606,-0.6638,-0.6648,-0.6627,-0.6739,-0.6704,-0.6717,-0.6762,-0.6874,-0.6881,-0.6888,-0.6935,-0.6949,-0.6961,0,0,0,0,0,0,-0.6446,-0.6462,-0.6495,-0.652,-0.6535,-0.663,-0.6577,-0.6578,-0.6602,-0.6597,-0.6626,-0.6628,-0.6626,-0.6697,-0.6709,-0.6751,-0.6675,-0.6877,-0.6883,-0.6888,-0.694,-0.6951,-0.6961,0,0,0,0,0,-0.645,-0.6463,-0.657,-0.6519,-0.6532,-0.6543,-0.6575,-0.6575,-0.6594,-0.6609,-0.661,-0.6588,-0.6627,-0.6637,-0.6704,-0.6746,-0.6667,-0.6672,-0.6881,-0.6885,-0.6889,-0.6945,0,0,0,0,0,0,-0.6453,-0.6463,-0.6573,-0.6577,-0.6493,-0.6537,-0.6544,-0.6572,-0.6603,-0.6606,-0.657,-0.6566,-0.6629,-0.6636,-0.6644,-0.6744,-0.666,-0.6665,-0.6668,-0.6884,-0.6888,-0.6891,0,0,0,0,0,0,-0.6456,-0.6467,-0.6575,-0.6542,-0.6542,-0.6532,-0.6538,-0.6595,-0.6604,-0.6563,-0.656,-0.6568,-0.6617,-0.6636,-0.6642,-0.673,-0.6655,-0.6659,-0.6662,-0.6664,-0.6887,-0.689,0,0,0,0,0,0,-0.6461,-0.647,-0.6541,-0.6541,-0.6541,-0.6583,-0.6582,-0.665,-0.6576,-0.6562,-0.6569,-0.6566,-0.6618,-0.6623,-0.6641,-0.6727,-0.673,-0.6655,-0.6658,-0.666,-0.6662,0,0,0,0,0,0,0,-0.6464,-0.6405,-0.6551,-0.654,-0.654,-0.6611,-0.6612,-0.6613,-0.6575,-0.6573,-0.657,-0.6568,-0.6629,-0.6634,-0.6639,-0.6724,0,0,-0.6655,-0.6657,0,0,0,0,0,0,0,0,-0.6401,-0.6404,-0.6551,-0.6551,-0.6552,-0.6611,-0.6612,-0.6613,-0.6575,-0.6573,-0.6571,-0.6569,-0.6631,-0.6635,-0.6639,0,0,0,0,0,0,0,0,0,0,0,0,0,0,0,-0.6551,-0.6551,0,-0.6612,-0.6612,-0.6613,-0.6575,-0.6573,-0.6571,-0.6569,-0.6632,-0.6635,-0.6638,0,0,0,0,0,0,0,0,0,0,0,0,0,0,0,0,0,0,0,0,0,0,0,0,0,0,0,0,0,0,0,0,0,0,0,0,0,0,0,0,0,0,0,0,0,0,0,0,0,0,0,0,0,0,0,0,0,0,0,0,0,0,0,0,0,0,0,0,0]}],[{"header":{"parameterUnit":"kt","parameterCategory":2,"dx":1,"dy":1,"la1":30.253999710083008,"la2":30.299108505249023,"lo1":-89.0895004272461,"lo2":-89.04439544677734,"nx":28,"ny":28,"refTime":"2022-09-21T09:00:00:Z","depth":0,"parameterNumber":2,"parameterNumberName":"V-component_of_WINDS"},"data":[-6.0638,-6.0747,-6.076,-6.0889,-6.0922,-6.1012,-6.1047,-6.1094,-6.1134,-6.124,-6.1302,-6.1324,-6.1367,-6.1442,-6.1508,-6.1516,-6.1542,-6.1572,-6.1575,-6.1435,-6.1416,-6.1398,-6.1373,-6.1578,-6.1578,-6.1718,-6.1719,-6.172,-6.0535,-6.057,-6.0642,-6.0721,-6.0783,-6.0763,-6.0822,-6.0874,-6.0953,-6.1003,-6.1066,-6.1158,-6.1232,-6.1265,-6.1337,-6.1385,-6.1378,-6.1403,-6.1399,-6.1405,-6.1256,-6.123,-6.1408,-6.1408,-6.1408,-6.1408,-6.1408,-6.1408,-6.035,-6.0414,-6.047,-6.0548,-6.0591,-6.0643,-6.0705,-6.0732,-6.0801,-6.088,-6.088,-6.0969,-6.1019,-6.111,-6.1143,-6.1211,-6.1184,-6.1214,-6.1222,-6.1229,-6.1236,-6.103,-6.1224,-6.1223,-6.1223,-6.1222,-6.1222,0,-6.0217,-6.0224,-6.0294,-6.0369,-6.0426,-6.0484,-6.0539,-6.0578,-6.0592,-6.0648,-6.073,-6.0778,-6.0873,-6.0948,-6.1018,-6.1045,-6.1026,-6.1025,-6.1046,-6.1047,-6.1039,-6.1043,-6.0798,-6.1019,-6.1017,-6.1016,-6.1015,-6.1014,-6.003,-6.0104,-6.0168,-6.0215,-6.0248,-6.0324,-6.0371,-6.0379,-6.0429,-6.0495,-6.055,-6.0627,-6.0689,-6.0815,-6.084,-6.091,-6.09,-6.0983,-6.091,-6.0909,-6.09,-6.0895,-6.0901,-6.0996,-6.0999,-6.1001,-6.1002,0,-5.9923,-5.9944,-6.0062,-6.0117,-6.0133,-6.0209,-6.0254,-6.0318,-6.0335,-6.0424,-6.0445,-6.0472,-6.055,-6.0563,-6.0654,-6.0657,-6.0779,-6.0769,-6.0762,-6.076,-6.0834,-6.0827,-6.1077,-6.1109,-6.0899,-6.0901,-6.0903,0,-5.977,-5.9866,-5.9891,-5.9958,-6.0065,-6.0071,-6.0175,-6.0201,-6.0245,-6.0315,-6.0297,-6.0363,-6.0369,-6.0436,-6.0441,-6.0543,-6.056,-6.0568,-6.0568,-6.0569,-6.0568,-6.0592,-6.0582,-6.0567,-6.0566,-6.0565,-6.0564,0,-5.9599,-5.9725,-5.9835,-5.9867,-5.9934,-5.9984,-6.0014,-6.0063,-6.0109,-6.0169,-6.0198,-6.0268,-6.0306,-6.0359,-6.0366,-6.0315,-6.0491,-6.0423,-6.0498,-6.0498,-6.0535,-6.0532,-6.0752,-6.0562,-6.0562,-6.0561,-6.0561,0,-5.9477,-5.9542,-5.9699,-5.9754,-5.9786,-5.9858,-5.9928,-5.9993,-6.0045,-6.0054,-6.0102,-6.009,-6.0181,-6.0113,-6.0237,-6.017,-6.0208,-6.0224,-6.023,-6.0237,-6.016,-6.028,-6.0491,-6.0512,-6.0246,-6.0243,-6.0241,0,-5.9275,-5.9439,-5.9445,-5.9593,-5.967,-5.9645,-5.9725,-5.9772,-5.9791,-5.9857,-5.9876,-5.9951,-5.9903,-5.9928,-5.9988,-6.001,-6.0097,-5.9999,-6.0089,-6.0093,-6.0076,-6.027,-6.0297,-6.0444,-6.0207,-6.0211,-6.0213,0,-5.9121,-5.9203,-5.9229,-5.9265,-5.933,-5.9394,-5.9486,-5.9562,-5.9606,-5.9661,-5.9736,-5.9842,-5.9809,-5.985,-5.9848,-5.991,-6.0038,-5.9866,-5.9867,-5.9895,-6.0192,-6.0218,-6.0242,-6.0022,-6.0026,-6.0029,-6.0187,0,-5.893,-5.9015,-5.9087,-5.9166,-5.9218,-5.9312,-5.9327,-5.9379,-5.9372,-5.9389,-5.95,-5.9541,-5.9616,-5.9647,-5.964,-5.9779,-5.9757,-5.9721,-5.9654,-5.9782,-5.9834,-5.9855,-5.9575,-5.9573,-5.9572,-5.9571,0,0,-5.8731,-5.8852,-5.8855,-5.8945,-5.8989,-5.8961,-5.9059,-5.9098,-5.9176,-5.9206,-5.9169,-5.9323,-5.9358,-5.949,-5.9531,-5.9562,-5.9587,-5.9542,-5.9721,-5.9738,-5.9753,-5.9809,-5.9831,-5.9568,-5.9567,-5.9567,-5.9566,0,-5.8664,-5.8705,-5.8803,-5.8844,-5.8905,-5.8918,-5.8942,-5.8996,-5.9011,-5.9121,-5.9093,-5.9161,-5.9284,-5.9324,-5.936,-5.9527,-5.9501,-5.9549,-5.9634,-5.9705,-5.9724,-5.974,-5.9799,-5.982,-5.9562,-5.9562,-5.9563,0,-5.8513,-5.8555,-5.8604,-5.8704,-5.8742,-5.8822,-5.8756,-5.8843,-5.8901,-5.8862,-5.8971,-5.8995,-5.9049,-5.9173,-5.9229,-5.9197,-5.9421,-5.9353,-5.9363,-5.9369,-5.9438,-5.946,-5.9481,-5.9214,-5.9212,-5.9211,0,0,-5.8453,-5.8532,-5.8577,-5.869,-5.8717,-5.8738,-5.8782,-5.8779,-5.883,-5.885,-5.888,-5.8929,-5.9,-5.9047,-5.9114,-5.9249,-5.9259,-5.931,-5.9326,-5.9339,-5.9352,-5.9424,-5.9447,-5.9207,-5.9206,-5.9206,0,0,-5.8423,-5.8481,-5.8466,-5.8599,-5.865,-5.87,-5.8767,-5.8749,-5.8811,-5.8802,-5.8799,-5.8812,-5.8928,-5.8952,-5.8887,-5.909,-5.9023,-5.9039,-5.907,-5.9091,-5.9107,-5.9098,-5.8823,0,0,0,0,0,-5.8363,-5.8474,-5.846,-5.8485,-5.8609,-5.8709,-5.8724,-5.8726,-5.8679,-5.8732,-5.8754,-5.8724,-5.8916,-5.8859,-5.8882,-5.8954,-5.9145,-5.9156,-5.9166,-5.9238,-5.9259,-5.9278,0,0,0,0,0,0,-5.8372,-5.8403,-5.8457,-5.8512,-5.854,-5.8705,-5.8625,-5.8629,-5.8673,-5.8666,-5.8721,-5.8726,-5.8727,-5.8847,-5.8868,-5.8936,-5.8816,-5.9149,-5.9159,-5.9167,-5.9245,-5.9263,-5.9278,0,0,0,0,0,-5.838,-5.8404,-5.8604,-5.851,-5.8535,-5.8564,-5.8621,-5.8624,-5.8658,-5.8692,-5.8696,-5.8655,-5.8729,-5.8747,-5.8859,-5.8926,-5.8801,-5.8809,-5.9155,-5.9163,-5.9169,-5.9254,0,0,0,0,0,0,-5.8386,-5.8406,-5.8608,-5.8616,-5.8468,-5.8554,-5.8568,-5.8619,-5.868,-5.8685,-5.8625,-5.8618,-5.8732,-5.8745,-5.8759,-5.8923,-5.8789,-5.8797,-5.8802,-5.9161,-5.9167,-5.9172,0,0,0,0,0,0,-5.8393,-5.8413,-5.8612,-5.8559,-5.856,-5.8546,-5.8558,-5.8653,-5.8681,-5.8609,-5.8606,-5.8621,-5.8711,-5.8745,-5.8755,-5.8903,-5.878,-5.8788,-5.8793,-5.8797,-5.9166,-5.917,0,0,0,0,0,0,-5.8401,-5.8418,-5.8557,-5.8558,-5.8559,-5.8641,-5.8629,-5.8756,-5.8639,-5.8607,-5.8628,-5.8623,-5.8711,-5.8721,-5.8753,-5.8897,-5.8902,-5.8781,-5.8786,-5.879,-5.8792,0,0,0,0,0,0,0,-5.8408,-5.8296,-5.8565,-5.8558,-5.8558,-5.8683,-5.8685,-5.8687,-5.8637,-5.8633,-5.8629,-5.8625,-5.8737,-5.8746,-5.8754,-5.8892,0,0,-5.878,-5.8784,0,0,0,0,0,0,0,0,-5.8289,-5.8294,-5.8566,-5.8567,-5.8569,-5.8684,-5.8685,-5.8687,-5.8637,-5.8633,-5.863,-5.8627,-5.874,-5.8746,-5.8753,0,0,0,0,0,0,0,0,0,0,0,0,0,0,0,-5.8566,-5.8567,0,-5.8684,-5.8685,-5.8687,-5.8636,-5.8633,-5.8631,-5.8628,-5.8741,-5.8747,-5.8753,0,0,0,0,0,0,0,0,0,0,0,0,0,0,0,0,0,0,0,0,0,0,0,0,0,0,0,0,0,0,0,0,0,0,0,0,0,0,0,0,0,0,0,0,0,0,0,0,0,0,0,0,0,0,0,0,0,0,0,0,0,0,0,0,0,0,0,0,0]}]]]